Regional Weather Roundup
Issued by NWS

Home | Current Version | Previous Version | Text Only | Print | Product List | Glossary Off
Versions: 1 2 3 4 5 6 7 8 9 10 11 12 13 14 15 16 17 18 19 20 21 22 23 24 25 26 27 28 29 30 31 32 33 34 35 36 37 38 39 40 41 42 43 44 45 46 47 48 49 50

000
ASUS43 KIND 190659
RWRIN

WEATHER ROUNDUP FOR INDIANA
NATIONAL WEATHER SERVICE INDIANAPOLIS IN
200 AM EST SUN NOV 19 2017

NOTE: "FAIR" INDICATES FEW OR NO CLOUDS BELOW 12,000 FEET WITH NO
SIGNIFICANT WEATHER AND/OR OBSTRUCTIONS TO VISIBILITY.

* - STATION DOES NOT REPORT WEATHER SUCH AS PRECIPITATION OR FOG.

+ - STATION NOT QUALITY CONTROLLED BY THE NATIONAL WEATHER SERVICE.
    USE DATA WITH CAUTION...ESPECIALLY DEWPOINT AND RELATIVE
    HUMIDITY OBSERVATIONS.

INZ001>003-010>013-019-020-190800-
NORTHWEST INDIANA

CITY           SKY/WX    TMP DP  RH WIND       PRES   REMARKS
KNOX *+        CLOUDY    37  32  81 NW14G21   29.82R WCI  29
LA PORTE +     CLOUDY    38  30  73 NW10G22   29.82R WCI  31
MONTICELLO +   CLOUDY    37  31  79 NW10      29.85R WCI  29

$$

LMZ046-743>745-190800-
SOUTHERN LAKE MICHIGAN

STATION/POSITION TIME  TEMP    WIND        PRES    WAVE
                       AIR SEA DIR/SP/G            HT
                 (UTC) (F)     (DEG/KT/KT) (MB)    (FT)
BURNS HARBOR     0607   40     320/ 22     1010.5
MICHIGAN CITY    0630   40     300/ 24/ 27   N/A

$$

INZ004-005-014>016-021>024-190800-
NORTH CENTRAL INDIANA

CITY           SKY/WX    TMP DP  RH WIND       PRES   REMARKS
GOSHEN         CLOUDY    39  28  64 NW16G24   29.76R WCI  30
PERU/GRISSOM   CLOUDY    38  31  78 W15       29.81R WCI  29
SOUTH BEND     CLOUDY    38  30  73 NW14      29.79R WCI  30
WARSAW +       CLOUDY    37  30  75 NW15G23   29.77R WCI  28

$$

INZ006>009-017-018-025>027-190800-
NORTHEAST INDIANA

CITY           SKY/WX    TMP DP  RH WIND       PRES   REMARKS
AUBURN +       DRIZZLE   37  32  81 NW25G31   29.74R WCI  26
FORT WAYNE     CLOUDY    40  34  79 W14       29.75R WCI  32
KENDALLVILLE + CLOUDY    36  34  93 NW9       29.73R WCI  29

$$

INZ028-029-035-036-043>045-051>053-190800-
WEST CENTRAL INDIANA

CITY           SKY/WX    TMP DP  RH WIND       PRES   REMARKS
LAFAYETTE      CLOUDY    38  32  79 NW10      29.88R WCI  31
TERRE HAUTE    CLOUDY    39  32  76 NW13G22   29.94R WCI  31

$$

INZ030>032-037>040-046>048-054>057-064-065-190800-
CENTRAL INDIANA

CITY           SKY/WX    TMP DP  RH WIND       PRES   REMARKS
INDIANAPOLIS   CLOUDY    38  30  73 NW15      29.87R WCI  29
-EAGLE CREEK   CLOUDY    39  29  67 NW14      29.86R WCI  31
KOKOMO +       CLOUDY    38  31  76 W17G23    29.83R WCI  28
MT COMFORT *+  CLOUDY    37  34  87 NW10      29.85R WCI  30
SHELBYVILLE    CLOUDY    39  29  67 NW14G22   29.85R WCI  31

$$

INZ033-034-041-042-049-050-058-059-190800-
EAST CENTRAL INDIANA

CITY           SKY/WX    TMP DP  RH WIND       PRES   REMARKS
MUNCIE         CLOUDY    39  33  79 NW16G24   29.80R WCI  30
RICHMOND +     CLOUDY    36  34  93 NW20G25   29.79R WCI  25

$$

INZ060-061-067>069-081>083-085>088-190800-
SOUTHWEST INDIANA

CITY           SKY/WX    TMP DP  RH WIND       PRES   REMARKS
EVANSVILLE     CLOUDY    41  34  76 NW10G22   30.00R
HUNTINGBURG +  CLOUDY    41  34  76 NW9       29.96S

$$

INZ062-063-066-070>080-084-089>092-190800-
SOUTH CENTRAL AND SOUTHEAST INDIANA

CITY           SKY/WX    TMP DP  RH WIND       PRES   REMARKS
BLOOMINGTON    CLOUDY    39  29  67 VRB6G20   29.90R WCI  35
MADISON *+     CLOUDY    39  32  75 W9G17     29.90R WCI  33
SEYMOUR +      CLOUDY    41  32  70 NW8G18    29.90R

$$





USA.gov is the U.S. government's official web portal to all federal, state and local government web resources and services.